{"data":{"norad_id":49195,"intl_designator":"2021-083K","name":"ONEWEB-0326","alt_names":[],"object_type":"PAYLOAD","status":"ACTIVE","operator":null,"country":"UK","launch_date":"2021-09-14","launch_site_code":"TYMSC","launch_vehicle":null,"mission":null,"orbit_class":"UNKNOWN","rcs_meters":null,"size_class":null,"mass_kg":null,"dimensions":null,"purposes":["comms"],"wikipedia_slug":null,"has_3d_model":false,"image_url":null,"decayed_at":null,"tle_current":{"epoch":"2026-09-19T22:10:03.811008Z","epoch_age_seconds":71844,"freshness":"FRESH","line1":"1 49195U 21083K   26262.92365522  .00000050  00000+0  94429-4 0  9990","line2":"2 49195  87.9161 316.6346 0002164 101.2330 258.9045 13.18686658242489","mean_motion":13.18686658,"eccentricity":0.0002164,"inclination_deg":87.9161,"raan_deg":316.6346,"arg_perigee_deg":101.233,"mean_anomaly_deg":258.9045,"bstar":9.4429e-5,"rev_number":24248,"period_min":109.19955785281,"perigee_km":1188.1029206649,"apogee_km":1191.3782980943,"semimajor_km":7567.8776093796,"source":"CELESTRAK","updated_at":"2026-09-20T09:00:44.662200Z"}}}